Bridgeport, TX

3:59 AM CDT on July 23, 2017 (GMT -0500)
Bridgeport

Weather History for KXBP - October, 2013

Change the Weather History Date:

Sunday, October 27, 2013

  Actual Average (KAFW) Record (KAFW)
Temperature  
Mean Temperature 58 °F -  
Max Temperature 61 °F 72 °F 88 °F (2016)
Min Temperature 55 °F 51 °F 33 °F (1997)
Degree Days  
Heating Degree Days 8    
Growing Degree Days 8 (Base 50)    
Moisture  
Dew Point 58 °F    
Average Humidity 98    
Maximum Humidity 100    
Minimum Humidity 83    
Precipitation  
Precipitation 0.46 in - - ()
Sea Level Pressure  
Sea Level Pressure 30.13 in    
Wind  
Wind Speed 2 mph (NNW)    
Max Wind Speed 6 mph    
Max Gust Speed -    
Visibility 7 miles    
Events      
Averages and records for this station are not official NWS values.
T = Trace of Precipitation, MM = Missing Value Source: NWS Daily Summary

Daily Weather History Graph

Daily Weather History Graph

Search for Another Location

Airport or City:

Trip Planner

Search our weather history database for the weather conditions in past years. The results will help you decide how hot, cold, wet, or windy it might be!

Date:

Astronomy

Oct. 27, 2013 Rise Set
Actual Time 7:45 AM CDT 6:44 PM CDT
Civil Twilight 7:20 AM CDT 7:09 PM CDT
Nautical Twilight 6:51 AM CDT 7:38 PM CDT
Astronomical Twilight 6:22 AM CDT 8:07 PM CDT
Moon 1:04 AM CDT (10/27) 2:35 PM CDT (10/27)
Length of Visible Light 11h 49m
Length of Day
10h 58m
Last Quarter, 43% of the Moon is Illuminated
Oct 27
Last Quarter
Nov 3
New
Nov 9
First Quarter
Nov 17
Full
Nov 25
Last Quarter

Hourly Weather History & Observations

Time (CDT) Temp. Dew Point Humidity Pressure Visibility Wind Dir Wind Speed Gust Speed Precip Events Conditions
12:15 AM 59.9 °F 59.9 °F 100% 30.13 in 10.0 mi NNE 4.6 mph - N/A   Overcast
12:35 AM 59.9 °F 59.9 °F 100% 30.13 in 7.0 mi Calm Calm - N/A   Overcast
12:55 AM 60.1 °F 60.1 °F 100% 30.13 in 5.0 mi Calm Calm - N/A   Overcast
1:15 AM 60.1 °F 60.1 °F 100% 30.13 in 5.0 mi NNE 5.8 mph - N/A   Overcast
1:35 AM 59.4 °F 59.4 °F 100% 30.13 in 0.8 mi NNE 4.6 mph - N/A   Overcast
1:55 AM 59.0 °F 59.0 °F 100% 30.13 in 1.2 mi NNE 4.6 mph - N/A   Overcast
2:15 AM 58.3 °F 58.3 °F 100% 30.12 in 2.5 mi North 5.8 mph - N/A   Overcast
2:35 AM 58.3 °F 58.3 °F 100% 30.12 in 2.5 mi Calm Calm - N/A   Overcast
2:55 AM 58.1 °F 58.1 °F 100% 30.12 in 2.5 mi Calm Calm - N/A   Overcast
3:15 AM 58.1 °F 58.1 °F 100% 30.11 in 1.8 mi North 3.5 mph - N/A   Overcast
3:35 AM 58.1 °F 58.1 °F 100% 30.10 in 1.8 mi Calm Calm - N/A   Drizzle
3:55 AM 58.1 °F 58.1 °F 100% 30.10 in 3.0 mi Calm Calm - N/A   Overcast
4:15 AM 58.1 °F 58.1 °F 100% 30.11 in 3.0 mi Calm Calm - N/A   Overcast
4:35 AM 58.1 °F 58.1 °F 100% 30.11 in 7.0 mi Calm Calm - N/A   Overcast
4:55 AM 58.1 °F 58.1 °F 100% 30.11 in 7.0 mi NNW 4.6 mph - N/A   Overcast
5:15 AM 57.9 °F 57.9 °F 100% 30.11 in 10.0 mi NW 3.5 mph - N/A   Overcast
5:35 AM 57.6 °F 57.6 °F 100% 30.11 in 10.0 mi NNW 4.6 mph - N/A   Overcast
5:55 AM 57.0 °F 57.0 °F 100% 30.12 in 10.0 mi NW 5.8 mph - N/A   Overcast
6:15 AM 56.7 °F 56.7 °F 100% 30.12 in 10.0 mi Calm Calm - N/A   Overcast
6:35 AM 56.3 °F 56.3 °F 100% 30.12 in 10.0 mi Calm Calm - N/A   Overcast
6:55 AM 56.3 °F 56.3 °F 100% 30.12 in 10.0 mi Calm Calm - N/A   Overcast
7:15 AM 56.3 °F 56.3 °F 100% 30.13 in 10.0 mi WNW 3.5 mph - N/A   Overcast
7:35 AM 56.1 °F 56.1 °F 100% 30.13 in 10.0 mi Calm Calm - N/A   Overcast
7:55 AM 56.3 °F 56.3 °F 100% 30.13 in 10.0 mi Calm Calm - N/A   Overcast
8:15 AM 56.3 °F 56.3 °F 100% 30.13 in 10.0 mi North 3.5 mph - N/A   Overcast
8:35 AM 55.9 °F 55.9 °F 100% 30.13 in 3.0 mi Calm Calm - N/A   Overcast
8:55 AM 55.9 °F 55.9 °F 100% 30.14 in 3.0 mi Calm Calm - N/A   Overcast
9:15 AM 56.3 °F 56.3 °F 100% 30.15 in 4.0 mi Calm Calm - N/A   Overcast
9:35 AM 57.2 °F 57.2 °F 100% 30.15 in 5.0 mi Calm Calm - N/A   Overcast
9:55 AM 58.1 °F 57.9 °F 99% 30.16 in 10.0 mi WNW 3.5 mph - N/A   Overcast
10:15 AM 58.6 °F 58.1 °F 98% 30.17 in 10.0 mi Calm Calm - N/A   Overcast
10:35 AM 59.2 °F 58.6 °F 98% 30.17 in 10.0 mi Calm Calm - N/A   Overcast
10:55 AM 59.9 °F 58.5 °F 95% 30.17 in 10.0 mi Calm Calm - N/A   Overcast
11:15 AM 59.9 °F 58.8 °F 96% 30.16 in 10.0 mi Calm Calm - N/A   Overcast
11:35 AM 60.6 °F 57.4 °F 89% 30.16 in 10.0 mi Calm Calm - N/A   Overcast
11:55 AM 60.4 °F 56.7 °F 87% 30.16 in 10.0 mi Calm Calm - N/A   Overcast
12:15 PM 60.1 °F 59.0 °F 96% 30.16 in 5.0 mi West 5.8 mph - N/A   Overcast
12:35 PM 59.7 °F 59.4 °F 99% 30.15 in 4.0 mi WNW 4.6 mph - N/A   Overcast
12:55 PM 59.5 °F 59.0 °F 98% 30.15 in 4.0 mi West 3.5 mph - N/A   Overcast
1:15 PM 60.4 °F 57.2 °F 89% 30.13 in 5.0 mi NW 3.5 mph - N/A   Overcast
1:35 PM 61.7 °F 56.5 °F 83% 30.12 in 7.0 mi Calm Calm - N/A   Overcast